Ponce, PR

5:35 AM AST on June 26, 2017 (GMT -0400)
Mercedita

Weather History for TJPS - January, 2014

Change the Weather History Date:

Thursday, January 30, 2014

  Actual Average Record
Temperature  
Mean Temperature 80 °F -  
Max Temperature 87 °F 85 °F 89 °F (2002)
Min Temperature 73 °F 67 °F 62 °F (2004)
Cooling Degree Days 15    
Growing Degree Days 30 (Base 50)    
Moisture  
Dew Point 66 °F    
Average Humidity 66    
Maximum Humidity 78    
Minimum Humidity 55    
Precipitation  
Precipitation 0.00 in - - ()
Sea Level Pressure  
Sea Level Pressure 30.06 in    
Wind  
Wind Speed 7 mph (East)    
Max Wind Speed 23 mph    
Max Gust Speed 23 mph    
Visibility 9 miles    
Events      
Averages and records for this station are not official NWS values.
T = Trace of Precipitation, MM = Missing Value Source: NWS Daily Summary

Daily Weather History Graph

Daily Weather History Graph

Search for Another Location

Airport or City:

Trip Planner

Search our weather history database for the weather conditions in past years. The results will help you decide how hot, cold, wet, or windy it might be!

Date:

Astronomy

Jan. 30, 2014 Rise Set
Actual Time 6:59 AM AST 6:19 PM AST
Civil Twilight 6:36 AM AST 6:42 PM AST
Nautical Twilight 6:10 AM AST 7:08 PM AST
Astronomical Twilight 5:44 AM AST 7:34 PM AST
Moon 6:27 AM AST (1/30) 6:18 PM AST (1/30)
Length of Visible Light 12h 05m
Length of Day
11h 20m
Waning Crescent, 0% of the Moon is Illuminated
Jan 30
Waning Crescent
Jan 30
New
Feb 6
First Quarter
Feb 14
Full
Feb 22
Last Quarter

Hourly Weather History & Observations

Time (AST) Temp. Heat Index Dew Point Humidity Pressure Visibility Wind Dir Wind Speed Gust Speed Precip Events Conditions
12:50 AM 73.4 °F - 66.2 °F 78% 30.07 in 10.0 mi Calm Calm - N/A   Partly Cloudy
1:50 AM 73.4 °F - 66.2 °F 78% 30.07 in 8.0 mi ESE 11.5 mph 20.7 mph N/A   Mostly Cloudy
2:50 AM 73.4 °F - 66.2 °F 78% 30.05 in 8.0 mi ENE 5.8 mph - N/A   Mostly Cloudy
4:50 AM 73.4 °F - 64.4 °F 73% 30.04 in 8.0 mi Calm Calm - N/A   Partly Cloudy
6:50 AM 73.4 °F - 64.4 °F 73% 30.05 in 10.0 mi Calm Calm - N/A   Partly Cloudy
7:50 AM 75.2 °F - 64.4 °F 69% 30.07 in 10.0 mi East 6.9 mph - N/A   Partly Cloudy
8:50 AM 80.6 °F 82.7 °F 66.2 °F 61% 30.09 in 10.0 mi ENE 9.2 mph - N/A   Partly Cloudy
10:50 AM 86.0 °F 90.4 °F 69.8 °F 58% 30.10 in 10.0 mi ESE 11.5 mph 17.3 mph N/A   Partly Cloudy
11:50 AM 86.0 °F 90.4 °F 69.8 °F 58% 30.09 in 10.0 mi SSE 11.5 mph 17.3 mph N/A   Partly Cloudy
12:50 PM 87.8 °F 92.6 °F 69.8 °F 55% 30.07 in 10.0 mi SE 23.0 mph - N/A   Partly Cloudy
2:50 PM 87.8 °F 92.6 °F 69.8 °F 55% 30.03 in 10.0 mi South 17.3 mph 23.0 mph N/A   Partly Cloudy
4:50 PM 87.8 °F 92.6 °F 69.8 °F 55% 30.03 in 10.0 mi SSE 17.3 mph 23.0 mph N/A   Partly Cloudy
5:50 PM 82.4 °F 86.3 °F 69.8 °F 66% 30.03 in 10.0 mi SE 11.5 mph 17.3 mph N/A   Partly Cloudy
6:50 PM 78.8 °F - 64.4 °F 61% 30.05 in 10.0 mi ENE 5.8 mph - N/A   Partly Cloudy
7:50 PM 78.8 °F - 64.4 °F 61% 30.05 in 10.0 mi East 5.8 mph - N/A   Partly Cloudy
8:50 PM 75.2 °F - 64.4 °F 69% 30.05 in 8.0 mi ENE 5.8 mph - N/A   Partly Cloudy
9:50 PM 75.2 °F - 64.4 °F 69% 30.05 in 8.0 mi NE 5.8 mph - N/A   Partly Cloudy
10:50 PM 73.4 °F - 64.4 °F 73% 30.08 in 8.0 mi East 5.8 mph - N/A   Partly Cloudy
11:50 PM 73.4 °F - 64.4 °F 73% 30.07 in 8.0 mi NE 5.8 mph - N/A   Partly Cloudy